Terminal Aerodrome Forecast
Issued by NWS Topeka, KS

Home | Current Version | Previous Version | Graphics & Text | Print | Product List | Glossary On
Versions: 1 2 3 4 5 6 7 8 9 10 11 12 13 14 15 16 17 18 19 20 21 22 23 24
000
FTUS43 KTOP 310520
TAFTOP
TAF
KTOP 310520Z 3106/0106 00000KT 5SM BR MIFG SCT050
     FM310900 13002KT 3SM BR MIFG FEW025
      TEMPO 3111/3113 1SM BR SCT006
     FM311500 16007KT P6SM FEW030=

USA.gov is the U.S. government's official web portal to all federal, state and local government web resources and services.